Hourly Weather Roundup
Issued by NWS Central Illinois

Home | Current Version | Previous Version | Text Only | Print | Product List | Glossary On
Versions: 1 2 3 4 5 6 7 8 9 10 11 12 13 14 15 16 17 18 19 20 21 22 23 24 25 26 27 28 29 30 31 32 33 34 35 36 37 38 39 40 41 42 43 44 45 46 47 48 49 50
000
NZUS43 KILX 311210
HWRILX

AREA WEATHER ROUNDUP
NATIONAL WEATHER SERVICE, LINCOLN IL
600 AM CST SAT JAN 31 2015


CITY           SKY/WX    TMP DP  RH WIND       PRES   REMARKS
BLOOMINGTON    PTCLDY    26  23  88 SW9       30.28F WCI  17
6HR MIN TEMP:  22; 6HR MAX TEMP:  29;

CHAMPAIGN      PTCLDY    26  21  81 SW10      30.31S WCI  16
6HR MIN TEMP:  21; 6HR MAX TEMP:  27;

DECATUR        MOCLDY    28  22  78 S8        30.31F WCI  20
6HR MIN TEMP:  23; 6HR MAX TEMP:  28;

FLORA          PTCLDY    25  22  87 CALM      30.37R
6HR MIN TEMP:  22; 6HR MAX TEMP:  26;

GALESBURG      MOCLDY    26  22  86 S8        30.25S WCI  17
JACKSONVILLE   MOCLDY    31  23  73 S7        30.30S WCI  24
6HR MIN TEMP:  29; 6HR MAX TEMP:  31;

LACON          PTCLDY    25  20  80 CALM      30.26F
6HR MIN TEMP:  20; 6HR MAX TEMP:  25;

LAWRENCEVILLE  PTCLDY    22  19  89 CALM      30.37S
6HR MIN TEMP:  21; 6HR MAX TEMP:  23;

LITCHFIELD     PTCLDY    28  23  82 S6        30.32S WCI  21
$$


CITY           SKY/WX    TMP DP  RH WIND       PRES   REMARKS
LINCOLN        MOCLDY    28  24  84 S3        30.31F
6HR MIN TEMP:  25; 6HR MAX TEMP:  29;

MACOMB         CLOUDY    29  23  76 SW9       30.29S WCI  21
MATTOON        CLOUDY    27  20  75 S6        30.32S WCI  20
6HR MIN TEMP:  22; 6HR MAX TEMP:  27;

MT CARMEL AP   PTCLDY    28  23  80 CALM      30.36F
OLNEY-NOBLE AP PTCLDY    23  21  93 CALM      30.36S
PARIS          PTCLDY    24  21  86 S3        30.34F
6HR MIN TEMP:  22; 6HR MAX TEMP:  24;

PEORIA         MOCLDY    26  20  77 S7        30.28F WCI  18
6HR MIN TEMP:  24; 6HR MAX TEMP:  29;

PONTIAC        PTCLDY    27  23  86 SW6       30.29S WCI  20
RANTOUL        PTCLDY    28  23  82 SW6       30.31S WCI  21
6HR MIN TEMP:  24; 6HR MAX TEMP:  28;

ROBINSON       MOCLDY    25  21  86 S3        30.38R
6HR MIN TEMP:  18; 6HR MAX TEMP:  25;

SPRINGFIELD    MOCLDY    29  22  75 SW7       30.31S WCI  22
6HR MIN TEMP:  25; 6HR MAX TEMP:  29;

TAYLORVILLE    PTCLDY    28  23  80 S7        30.31F WCI  21
$$

...REGIONAL REPORTS...


CITY           SKY/WX    TMP DP  RH WIND       PRES   REMARKS
CHICAGO O`HARE CLEAR     24  18  77 SW6       30.24S WCI  17
KANKAKEE       PTCLDY    24  22  89 S8        30.29F WCI  16
MOLINE         PTCLDY    27  19  72 W6        30.22F WCI  20
MOUNT VERNON   PTCLDY    21  18  86 CALM      30.36S
PITTSFIELD     MOCLDY    30  22  73 S5        30.30S WCI  25
QUINCY         CLOUDY    30  21  69 SW9       30.28R WCI  22
ROCKFORD       MOCLDY    21  15  78 S7        30.24R WCI  12
$$


CITY           SKY/WX    TMP DP  RH WIND       PRES   REMARKS
BURLINGTON     CLOUDY    28  22  78 SW9       30.25S WCI  19
CEDAR RAPIDS   MOCLDY    26  21  81 S8        30.18S WCI  18
DES MOINES     CLOUDY    35  27  72 SW13      30.20S WCI  26
KIRKSVILLE     CLOUDY    29  21  72 SW6       30.27S WCI  23
OTTUMWA        MOCLDY    28  21  75 SW10      30.22S WCI  19
ST LOUIS       MOCLDY    32  20  61 S3        30.33S
$$


CITY           SKY/WX    TMP DP  RH WIND       PRES   REMARKS
TERRE HAUTE    CLEAR     21  17  84 CALM      30.36R
EVANSVILLE     PTCLDY    25  21  85 CALM      30.38F
INDIANAPOLIS   PTCLDY    18  14  84 S3        30.34R
LAFAYETTE      CLEAR     20  16  84 CALM      30.33S
MADISON        MOCLDY    24  15  68 VRB5      30.16F WCI  18
MILWAUKEE      MOCLDY    23  16  74 SW9       30.19F WCI  13
$$





USA.gov is the U.S. government's official web portal to all federal, state and local government web resources and services.